Content
SEND FEEDBACK

Daily
Averages
Monthly
Summary
United States of America

RAPID CITY, SOUTH DAKOTA


Home > North America > United States > South Dakota
Elevation: 3162 feet     Latitude: 44 03N     Longitude: 103 04W

WEATHER
 
SELECT A DAY
Number of Records: 200,229;   Date Range: 1/1/95 - 7/22/14
 
SHARE

PRINT THIS DATA

[ ← Previous Day ]
WEATHER ALMANAC - JANUARY 5, 2013
[ Next Day → ]
[ °C ]   °F
Weather ElementAverageHighLow
Temperature29.4 °F41 °F (1:52 pm)16 °F (8:52 pm)
Dewpoint16.3 °F21 °F (3:52 am)10 °F (8:52 pm)
Humidity60 %81 % (9:52 pm)40 % (1:52 pm)
Barometer30.22 in30.31 in (7:52 pm)30.11 in (1:52 am)
Wind Speed13.6 mph29.9 mph (8:52 am)
Wind Gust41.4 mph (9:52 am)
Weather ElementAverage
Visibility10 mi
Wind DirectionW (272.6 °)

Weather ElementTotal
Precipitation---
Heating Degree Days36.5 (Base 65)
Averaged from 23 records on January 5, 2013
WEATHER CONDITIONS BREAKOUT
WIND DIRECTION BREAKOUT
WEATHER BY HOUR - JANUARY 5, 2013
[ °C ]   °F
Local TimeTemperatureDewpointHumidityBarometerVisibilityWind DirectionWind SpeedGust SpeedPrecipitationEventsConditions
1:52 AM28.9 °F14.0 °F54 %30.11 in10.0 miWNW (300°)10.4 mphClear
2:52 AM25.0 °F15.1 °F66 %30.14 in10.0 miWNW (300°)8.1 mphClear
3:52 AM36.0 °F21.0 °F55 %30.12 in10.0 miNW (310°)17.3 mphScattered Clouds
4:52 AM27.0 °F18.0 °F69 %30.14 in10.0 miNW (310°)8.1 mphClear
5:52 AM25.0 °F16.0 °F69 %30.16 in10.0 miWNW (300°)9.2 mphClear
6:52 AM27.0 °F18.0 °F69 %30.17 in10.0 miWNW (300°)9.2 mphClear
7:52 AM30.9 °F19.0 °F61 %30.16 in10.0 miNW (320°)16.1 mphClear
8:52 AM35.1 °F21.0 °F57 %30.19 in10.0 miNNW (340°)29.9 mph36.8 mphClear
9:52 AM37.9 °F19.9 °F48 %30.20 in10.0 miNNW (330°)28.8 mph41.4 mphClear
10:52 AM37.9 °F17.1 °F43 %30.20 in10.0 miNW (320°)29.9 mph38.0 mphClear
11:52 AM39.0 °F18.0 °F43 %30.22 in10.0 miNNW (330°)27.6 mph39.1 mphClear
12:52 PM39.0 °F19.0 °F45 %30.19 in10.0 miNNW (330°)21.9 mph29.9 mphClear
1:52 PM41.0 °F18.0 °F40 %30.18 in10.0 miNNW (330°)23.0 mphClear
2:52 PM39.9 °F18.0 °F41 %30.21 in10.0 miNNW (330°)23.0 mph28.8 mphClear
3:52 PM37.9 °F18.0 °F45 %30.22 in10.0 miNNW (330°)16.1 mphClear
4:52 PM30.9 °F18.0 °F59 %30.26 in10.0 miNNW (330°)11.5 mphClear
5:52 PM27.0 °F17.1 °F66 %30.29 in10.0 miNW (320°)10.4 mphClear
6:52 PM26.1 °F15.1 °F63 %30.30 in10.0 miWNW (300°)4.6 mphClear
7:52 PM19.9 °F12.0 °F71 %30.31 in10.0 miWSW (250°)3.5 mphClear
8:52 PM16.0 °F10.0 °F77 %30.30 in10.0 miCalmClear
9:52 PM16.0 °F10.9 °F81 %30.30 in10.0 miCalmClear
10:52 PM16.0 °F10.9 °F81 %30.30 in10.0 miCalmClear
11:52 PM17.1 °F10.9 °F77 %30.28 in10.0 miWNW (290°)3.5 mphClear
Hourly data recorded from KRAP, located miles away from Rapid City, South Dakota







STORIES FROM OUR PARTNERS